WB2COY Weather Reports


Display with metric or nautical units.
time (UTC)temp
F
wind
direction
speed
MPH
gust
MPH
rain 1hr
in
rain 24hr
in
rain mn
in
humidity
%
barometer
mb
20260903170038 79 0.0 2.0 0.00 0.64 0.35 72 1013.3
20260903163017 79 225 1.0 4.0 0.00 0.64 0.35 70 1013.6
20260903160017 78 225 1.0 4.0 0.00 0.64 0.35 71 1013.8
20260903153038 77 225 1.0 3.0 0.00 0.64 0.35 73 1014.0
20260903150016 75 0.0 4.0 0.00 0.64 0.35 76 1014.4
20260903143016 73 225 1.0 3.0 0.00 0.64 0.35 79 1014.3
20260903140016 72 0.0 3.0 0.00 0.64 0.35 82 1014.1
20260903133036 70 0.0 4.0 0.00 0.64 0.35 83 1014.4
20260903130017 69 0.0 3.0 0.00 0.64 0.35 84 1014.3
20260903123021 68 0.0 1.0 0.00 0.64 0.35 84 1014.8
20260903120018 67 0.0 1.0 0.00 0.64 0.35 84 1014.7
20260903113017 67 0.0 0.0 0.00 0.64 0.35 84 1015.0
20260903110016 66 0.0 1.0 0.00 0.64 0.35 84 1015.2
20260903103016 67 0.0 2.0 0.00 0.64 0.35 84 1015.2
20260903100016 66 0.0 4.0 0.00 0.64 0.35 84 1015.0
20260903093016 66 0.0 1.0 0.00 0.64 0.35 84 1014.6
20260903090016 66 0.0 0.0 0.02 0.64 0.35 84 1014.9
20260903083016 66 0.0 1.0 0.03 0.64 0.35 84 1015.3
20260903080021 66 0.0 2.0 0.02 0.62 0.33 84 1014.8
20260903073016 66 0.0 2.0 0.01 0.61 0.32 84 1015.4
20260903070018 65 0.0 1.0 0.00 0.60 0.31 84 1015.5
20260903063037 66 0.0 1.0 0.01 0.60 0.31 84 1015.7
20260903060015 66 0.0 3.0 0.05 0.60 0.31 83 1015.7
20260903053015 66 0.0 3.0 0.14 0.59 0.30 83 1016.8
20260903050016 66 0.0 1.0 0.26 0.55 0.26 83 1017.1
20260903043017 66 0.0 2.0 0.16 0.45 0.16 82 1018.2
20260903040037 66 0.0 1.0 0.00 0.29 0.29 81 1018.8
20260903033015 66 0.0 0.0 0.00 0.29 0.29 82 1017.9
20260903030016 65 0.0 0.0 0.00 0.29 0.29 82 1017.7
20260903023017 66 0.0 0.0 0.00 0.29 0.29 82 1018.5
20260903020015 66 0.0 0.0 0.00 0.29 0.29 81 1019.3
20260903013022 66 0.0 2.0 0.00 0.29 0.29 81 1019.1
20260903010015 66 0.0 2.0 0.00 0.29 0.29 81 1019.1
20260903003015 66 0.0 1.0 0.00 0.29 0.29 81 1019.0
20260903000036 66 0.0 1.0 0.00 0.29 0.29 81 1019.1
20260902233015 66 0.0 3.0 0.00 0.29 0.29 81 1018.7
20260902230058 66 0.0 0.0 0.00 0.29 0.29 81 1019.0
20260902223015 66 0.0 2.0 0.00 0.42 0.29 80 1019.3
20260902220015 67 0.0 1.0 0.00 0.42 0.29 79 1020.0
20260902213015 68 0.0 2.0 0.00 0.43 0.29 79 1019.7
20260902210015 68 0.0 0.0 0.00 0.43 0.29 79 1019.8
20260902203035 68 0.0 3.0 0.00 0.43 0.29 79 1019.8
20260902200015 67 0.0 2.0 0.00 0.43 0.29 80 1019.6
20260902193015 66 0.0 2.0 0.00 0.43 0.29 81 1020.1
20260902190017 65 0.0 2.0 0.13 0.43 0.29 82 1020.1
20260902183017 65 0.0 1.0 0.29 0.43 0.29 82 1020.3
20260902180015 65 0.0 2.0 0.16 0.30 0.16 80 1021.3
20260902173022 66 0.0 2.0 0.00 0.14 0.00 76 1021.2